sat.trackr.live / text

‹ back to catalog

AL MUNTHER

NORAD 63240 · 2025-052AG

PAYLOAD ACTIVE UNKNOWN

§ Identity

Operator
Country
BHR
Launch date
2025-03-15
Launch site
AFWTR
Launch vehicle
Mass (kg)
RCS (m²)

External: N2YO · Heavens-Above · Gunter

§ Orbital elements

Epoch: 2026-09-22T16:08:40.603488Z

Period
93.83 min
Inclination
97.3735°
Eccentricity
0.0007034
Mean motion
15.34737911 rev/d
Perigee alt
456.9 km
Apogee alt
466.5 km
Semi-major
6,839.8 km
B*
3.4759e-4
RAAN
160.3391°
Arg perigee
144.4277°
Mean anomaly
215.7436°
Rev number
8,495

§ Raw data

AL MUNTHER1 63240U 25052AG  26265.67269217  .00011637  00000+0  34759-3 0  99982 63240  97.3735 160.3391 0007034 144.4277 215.7436 15.34737911 84952

JSON: /api/v1/satellites/63240 · /tle

For live sub-satellite position, see the globe view (requires WebGL).

§ Visibility from observer

Set your observer location to see the next 7 days of passes ≥ 10°. The values pass through the URL so the page stays shareable.

No JS? Fill the form by hand. The geolocation button needs JavaScript.

§ Radio — SatNOGS DB

ModeDescriptionDownlinkUplink
BPSK Mode U - Transmitter AX.25 G3RUH 401.175 MHz
BPSK Mode U - Transmitter AX.25 G3RUH 436.500 MHz

2 transmitters · refreshed weekly from db.satnogs.org